Avalon, Australia

1:08 PM AEST on May 24, 2018 (GMT +1000)
Avalon

Weather History for YMAV - October, 2013

Change the Weather History Date:

Wednesday, October 9, 2013

  Actual Average Record
Temperature  
Mean Temperature 65 °F -  
Max Temperature 84 °F - - ()
Min Temperature 46 °F - - ()
Growing Degree Days 15 (Base 50)    
Moisture  
Dew Point 45 °F    
Average Humidity 49    
Maximum Humidity 94    
Minimum Humidity 16    
Precipitation  
Precipitation 0.00 in - - ()
Sea Level Pressure  
Sea Level Pressure 29.79 in    
Wind  
Wind Speed 12 mph ()    
Max Wind Speed 32 mph    
Max Gust Speed 44 mph    
Visibility 6.2 miles    
Events      
T = Trace of Precipitation, MM = Missing Value Source: Averaged Metar Reports

Daily Weather History Graph

Daily Weather History Graph

Search for Another Location

Airport or City:

Astronomy

Oct. 09, 2013 Rise Set
Actual Time 6:45 AM AEDT 7:33 PM AEDT
Civil Twilight 6:19 AM AEDT 8:00 PM AEDT
Nautical Twilight 5:47 AM AEDT 8:32 PM AEDT
Astronomical Twilight 5:15 AM AEDT 9:04 PM AEDT
Moon 9:28 AM AEDT (10/9) No Moon Set
Length of Visible Light 13h 41m
Length of Day
12h 47m
Waxing Crescent, 19% of the Moon is Illuminated
Oct 9
Waxing Crescent
Oct 12
First Quarter
Oct 19
Full
Oct 27
Last Quarter
Nov 3
New

Hourly Weather History & Observations

Time (AEDT) Temp. Windchill Dew Point Humidity Pressure Visibility Wind Dir Wind Speed Gust Speed Precip Events Conditions
12:00 AM 52 °F - 49 °F 84% 30.04 in - SW 8.1 mph - -  
12:00 AM 51.8 °F - 48.2 °F 88% 30.04 in 6.2 mi SW 8.1 mph - N/A   Unknown
12:30 AM 50.0 °F - 46.4 °F 87% 30.04 in 6.2 mi West 2.3 mph - N/A   Unknown
1:00 AM 48.2 °F - 46.4 °F 93% 30.01 in 6.2 mi NNW 3.5 mph - N/A   Unknown
1:30 AM 46.4 °F 42.4 °F 44.6 °F 93% 30.01 in 6.2 mi North 8.1 mph - N/A   Unknown
2:00 AM 48.2 °F - 46.4 °F 93% 30.01 in 6.2 mi North 5.8 mph - N/A   Unknown
2:30 AM 50.0 °F - 48.2 °F 94% 29.98 in 6.2 mi NNE 6.9 mph - N/A   Unknown
3:00 AM 47 °F - 45 °F 91% 29.98 in - North 5.8 mph - -  
3:00 AM 46.4 °F 43.5 °F 44.6 °F 93% 29.98 in 6.2 mi North 5.8 mph - N/A   Unknown
3:30 AM 50.0 °F - 46.4 °F 87% 29.95 in 6.2 mi North 9.2 mph - N/A   Unknown
4:00 AM 51.8 °F - 48.2 °F 88% 29.92 in 6.2 mi North 10.4 mph - N/A   Unknown
4:30 AM 51.8 °F - 46.4 °F 82% 29.92 in 6.2 mi North 13.8 mph - N/A   Unknown
5:00 AM 51.8 °F - 46.4 °F 82% 29.89 in 6.2 mi North 10.4 mph - N/A   Mostly Cloudy
5:30 AM 51.8 °F - 46.4 °F 82% 29.89 in 6.2 mi NNE 9.2 mph - N/A   Unknown
6:00 AM 51 °F - 45 °F 74% 29.89 in - NNE 12.7 mph - -  
6:00 AM 50.0 °F - 44.6 °F 82% 29.89 in 6.2 mi NNE 12.7 mph - N/A   Unknown
6:30 AM 53.6 °F - 46.4 °F 77% 29.89 in 6.2 mi North 15.0 mph - N/A   Unknown
7:00 AM 55.4 °F - 46.4 °F 72% 29.86 in 6.2 mi North 15.0 mph - N/A   Unknown
7:30 AM 55.4 °F - 46.4 °F 72% 29.83 in 6.2 mi NNE 12.7 mph - N/A   Unknown
8:00 AM 62.6 °F - 48.2 °F 59% 29.83 in 6.2 mi North 12.7 mph - N/A   Unknown
8:30 AM 68.0 °F - 48.2 °F 49% 29.83 in 6.2 mi NNE 18.4 mph - N/A   Mostly Cloudy
9:00 AM 68 °F - 47 °F 36% 29.83 in - North 19.6 mph - -  
9:00 AM 68.0 °F - 46.4 °F 46% 29.83 in 6.2 mi North 19.6 mph - N/A   Overcast
9:30 AM 69.8 °F - 48.2 °F 46% 29.83 in 6.2 mi North 21.9 mph - N/A   Unknown
10:00 AM 71.6 °F - 48.2 °F 43% 29.83 in 6.2 mi North 21.9 mph - N/A   Scattered Clouds
10:30 AM 71.6 °F - 46.4 °F 41% 29.83 in 6.2 mi North 16.1 mph - N/A   Overcast
11:00 AM 71.6 °F - 44.6 °F 38% 29.83 in 6.2 mi North 15.0 mph - N/A   Overcast
11:30 AM 71.6 °F - 44.6 °F 38% 29.83 in 6.2 mi North 15.0 mph - N/A   Overcast
12:00 PM 75 °F - 47 °F 26% 29.83 in - Calm Calm - -  
12:00 PM 75.2 °F - 46.4 °F 36% 29.83 in 6.2 mi Calm Calm - N/A   Mostly Cloudy
12:30 PM 80.6 °F - 46.4 °F 30% 29.80 in 6.2 mi North 12.7 mph - N/A   Unknown
1:00 PM 82.4 °F - 44.6 °F 26% 29.77 in 6.2 mi North 13.8 mph - N/A   Mostly Cloudy
1:13 PM 80.6 °F - 44.6 °F 28% 29.74 in 6.2 mi North 17.3 mph 28.8 mph N/A   Mostly Cloudy
2:01 PM 80.6 °F - 41.0 °F 24% 29.71 in 6.2 mi NNW 27.6 mph 39.1 mph N/A   Overcast
2:30 PM 78.8 °F - 42.8 °F 28% 29.68 in 6.2 mi North 31.1 mph - N/A   Overcast
3:00 PM 79 °F - 41 °F 16% 29.69 in - NNW 32.2 mph - -   Overcast
3:00 PM 78.8 °F - 41.0 °F 26% 29.68 in 6.2 mi NNW 32.2 mph 43.7 mph N/A   Overcast
3:30 PM 80.6 °F - 39.2 °F 23% 29.68 in 6.2 mi North 31.1 mph 42.6 mph N/A   Overcast
4:00 PM 80.6 °F - 41.0 °F 24% 29.68 in 6.2 mi NNW 27.6 mph 39.1 mph N/A   Overcast
4:30 PM 80.6 °F - 41.0 °F 24% 29.68 in 6.2 mi North 27.6 mph 40.3 mph N/A   Overcast
5:00 PM 80.6 °F - 42.8 °F 26% 29.65 in 6.2 mi NNW 26.5 mph - N/A   Overcast
5:07 PM 82.4 °F - 42.8 °F 25% 29.65 in 6.2 mi North 24.2 mph 39.1 mph N/A   Overcast
5:32 PM 84.2 °F - 44.6 °F 25% 29.65 in 6.2 mi North 26.5 mph 38.0 mph N/A   Overcast
6:00 PM 81 °F - 44 °F 17% 29.64 in - North 26.5 mph - -  
6:00 PM 80.6 °F - 44.6 °F 28% 29.62 in 6.2 mi North 26.5 mph - N/A   Mostly Cloudy
6:30 PM 78.8 °F - 46.4 °F 32% 29.62 in 6.2 mi North 19.6 mph - N/A   Overcast
7:00 PM 78.8 °F - 46.4 °F 32% 29.62 in 6.2 mi NW 11.5 mph 23.0 mph N/A   Overcast
7:30 PM 75.2 °F - 46.4 °F 36% 29.62 in 6.2 mi North 13.8 mph - N/A   Overcast
8:00 PM 77.0 °F - 42.8 °F 29% 29.62 in 6.2 mi North 12.7 mph - N/A   Overcast
8:30 PM 73.4 °F - 44.6 °F 36% 29.62 in 6.2 mi North 13.8 mph - N/A   Overcast
9:00 PM 75.2 °F - 42.8 °F 31% 29.62 in 6.2 mi North 13.8 mph - N/A   Overcast
9:30 PM 75.2 °F - 42.8 °F 31% 29.62 in 6.2 mi North 16.1 mph - N/A   Overcast
10:00 PM 75.2 °F - 41.0 °F 29% 29.62 in 6.2 mi North 18.4 mph - N/A   Overcast
10:30 PM 73.4 °F - 41.0 °F 31% 29.59 in 6.2 mi North 16.1 mph - N/A   Overcast
11:00 PM 78.8 °F - 37.4 °F 23% 29.59 in 6.2 mi North 19.6 mph - N/A   Overcast
11:30 PM 82.4 °F - 35.6 °F 19% 29.56 in 6.2 mi NNW 20.7 mph - N/A   Overcast